Overview Statistics Trail Chart Weather Telemetry Raw packets
 

This is the latest recevied weather packets stored in our database for station/object EA1JAV-10. If no packets are shown the sender has not sent any weather packets the latest 10 day(s).

<< 1 2 3 4 5 >>
Time Temp. Humidity Pressure Rain* Wind** Luminosity Snow
1788570418 25° C 47% 1005.8 hPa - - - -
1788568618 25° C 46% 1005.5 hPa - - - -
1788566818 25° C 46% 1006.1 hPa - - - -
1788565018 25° C 46% 1007.2 hPa - - - -
1788563218 25° C 46% 1006.8 hPa - - - -
1788561418 25.56° C 45% 1007.4 hPa - - - -
1788559618 25.56° C 45% 1007.9 hPa - - - -
1788557817 25.56° C 45% 1007.9 hPa - - - -
1788556017 25.56° C 45% 1007.5 hPa - - - -
1788554217 25.56° C 44% 1007.2 hPa - - - -
1788552417 26.11° C 44% 1007.4 hPa - - - -
1788550617 26.11° C 45% 1007.1 hPa - - - -
1788548817 26.11° C 45% 1007 hPa - - - -
1788547017 26.67° C 44% 1006.9 hPa - - - -
1788545217 26.67° C 44% 1006.6 hPa - - - -
1788543417 27.78° C 43% 1006.2 hPa - - - -
1788541617 27.78° C 42% 1005.8 hPa - - - -
1788539816 27.78° C 42% 1005.5 hPa - - - -
1788538016 27.22° C 41% 1005.5 hPa - - - -
1788536216 27.22° C 40% 1004.7 hPa - - - -
1788534416 26.67° C 38% 1005.5 hPa - - - -
1788532616 26.11° C 40% 1006.4 hPa - - - -
1788530816 26.11° C 41% 1006.8 hPa - - - -
1788529016 25.56° C 43% 1007.1 hPa - - - -
1788527216 25.56° C 42% 1007.5 hPa - - - -

* Rain since midnight (hover to see other rain measurements)
** Current wind speed in m/s (hover to see current wind gust speed)